| time (UTC) | temp F | wind direction | speed MPH | gust MPH | rain 1hr in | rain 24hr in | rain mn in | humidity % | barometer mb |
| 20260507060506 | 58 | 357 | 1.0 | 5.0 | 0.00 | 0.06 | 0.00 | 84 | 1006.1 |
| 20260507060021 | 58 | 13 | 1.0 | 7.0 | 0.00 | 0.06 | 0.00 | 84 | 1006.1 |
| 20260507055504 | 58 | 178 | 1.0 | 7.0 | 0.00 | 0.06 | 0.00 | 84 | 1006.4 |
| 20260507055004 | 58 | 354 | 2.0 | 6.0 | 0.00 | 0.06 | 0.00 | 85 | 1006.2 |
| 20260507054508 | 59 | 5 | 2.0 | 6.0 | 0.00 | 0.06 | 0.00 | 86 | 1006.6 |
| 20260507054010 | 59 | 228 | 0.0 | 3.0 | 0.00 | 0.06 | 0.00 | 86 | 1006.5 |
| 20260507053506 | 59 | 228 | 1.0 | 3.0 | 0.00 | 0.06 | 0.00 | 86 | 1006.5 |
| 20260507053013 | 59 | 9 | 0.0 | 3.0 | 0.00 | 0.06 | 0.00 | 86 | 1006.5 |
| 20260507052507 | 59 | 277 | 1.0 | 3.0 | 0.00 | 0.06 | 0.00 | 87 | 1006.3 |
| 20260507052007 | 59 | 286 | 0.0 | 4.0 | 0.00 | 0.06 | 0.00 | 87 | 1006.2 |
| 20260507051512 | 59 | 259 | 1.0 | 7.0 | 0.00 | 0.06 | 0.00 | 87 | 1006.1 |
| 20260507051007 | 59 | 321 | 2.0 | 5.0 | 0.00 | 0.06 | 0.00 | 88 | 1006.3 |
| 20260507050506 | 59 | 206 | 1.0 | 8.0 | 0.00 | 0.06 | 0.00 | 88 | 1006.3 |
| 20260507050024 | 59 | 190 | 3.0 | 7.0 | 0.00 | 0.06 | 0.00 | 89 | 1006.4 |
| 20260507045507 | 59 | 242 | 2.0 | 7.0 | 0.00 | 0.06 | 0.00 | 89 | 1006.2 |
| 20260507045007 | 59 | 233 | 4.0 | 7.0 | 0.00 | 0.06 | 0.00 | 90 | 1006.2 |
| 20260507044505 | 60 | 231 | 2.0 | 4.0 | 0.00 | 0.06 | 0.00 | 90 | 1006.1 |
| 20260507044005 | 59 | 214 | 1.0 | 5.0 | 0.00 | 0.06 | 0.00 | 91 | 1006.0 |
| 20260507043506 | 59 | 246 | 2.0 | 6.0 | 0.00 | 0.06 | 0.00 | 91 | 1006.1 |
| 20260507043011 | 59 | 213 | 3.0 | 6.0 | 0.00 | 0.06 | 0.00 | 91 | 1006.0 |
| 20260507042507 | 59 | 248 | 1.0 | 4.0 | 0.00 | 0.06 | 0.00 | 91 | 1006.0 |
| 20260507042006 | 59 | 223 | 2.0 | 8.0 | 0.00 | 0.06 | 0.00 | 91 | 1006.0 |
| 20260507041516 | 59 | 265 | 2.0 | 9.0 | 0.00 | 0.06 | 0.00 | 91 | 1006.0 |
| 20260507041010 | 59 | 223 | 3.0 | 10.0 | 0.00 | 0.06 | 0.00 | 91 | 1006.2 |
| 20260507040506 | 59 | 217 | 3.0 | 10.0 | 0.00 | 0.06 | 0.00 | 91 | 1006.2 |
| 20260507040018 | 59 | 234 | 3.0 | 8.0 | 0.00 | 0.06 | 0.00 | 91 | 1006.4 |
| 20260507035508 | 59 | 239 | 3.0 | 10.0 | 0.00 | 0.06 | 0.06 | 91 | 1006.2 |
| 20260507035004 | 59 | 218 | 4.0 | 10.0 | 0.00 | 0.06 | 0.06 | 91 | 1006.4 |
| 20260507034513 | 59 | 242 | 4.0 | 9.0 | 0.00 | 0.06 | 0.06 | 91 | 1006.2 |
| 20260507034008 | 59 | 242 | 4.0 | 9.0 | 0.00 | 0.06 | 0.06 | 91 | 1006.2 |
| 20260507033510 | 59 | 240 | 3.0 | 11.0 | 0.00 | 0.06 | 0.06 | 91 | 1006.2 |
| 20260507033010 | 58 | 233 | 5.0 | 11.0 | 0.00 | 0.06 | 0.06 | 91 | 1006.1 |
| 20260507032507 | 58 | 250 | 3.0 | 10.0 | 0.00 | 0.06 | 0.06 | 91 | 1006.1 |
| 20260507032007 | 58 | 279 | 3.0 | 10.0 | 0.00 | 0.06 | 0.06 | 91 | 1006.0 |
| 20260507031507 | 58 | 203 | 5.0 | 10.0 | 0.00 | 0.06 | 0.06 | 91 | 1006.0 |
| 20260507031009 | 58 | 259 | 3.0 | 10.0 | 0.00 | 0.06 | 0.06 | 91 | 1005.8 |
| 20260507030509 | 58 | 228 | 4.0 | 10.0 | 0.00 | 0.06 | 0.06 | 91 | 1005.7 |
| 20260507030020 | 58 | 236 | 4.0 | 10.0 | 0.00 | 0.06 | 0.06 | 91 | 1005.6 |
| 20260507025509 | 58 | 212 | 3.0 | 9.0 | 0.00 | 0.06 | 0.06 | 91 | 1005.6 |
| 20260507025008 | 58 | 229 | 2.0 | 8.0 | 0.00 | 0.06 | 0.06 | 91 | 1005.8 |
| 20260507024522 | 58 | 248 | 4.0 | 10.0 | 0.00 | 0.06 | 0.06 | 91 | 1006.0 |
| 20260507024012 | 58 | 213 | 3.0 | 10.0 | 0.00 | 0.06 | 0.06 | 91 | 1005.9 |
| 20260507023508 | 58 | 261 | 4.0 | 10.0 | 0.00 | 0.06 | 0.06 | 91 | 1005.8 |
| 20260507023020 | 58 | 247 | 5.0 | 10.0 | 0.00 | 0.06 | 0.06 | 91 | 1005.8 |
| 20260507022511 | 58 | 249 | 7.0 | 10.0 | 0.00 | 0.06 | 0.06 | 91 | 1005.8 |
| 20260507022007 | 58 | 254 | 3.0 | 9.0 | 0.00 | 0.06 | 0.06 | 91 | 1005.8 |
| 20260507021514 | 58 | 263 | 5.0 | 11.0 | 0.00 | 0.06 | 0.06 | 91 | 1005.9 |
| 20260507021007 | 57 | 259 | 5.0 | 11.0 | 0.00 | 0.06 | 0.06 | 91 | 1005.9 |
| 20260507020508 | 57 | 269 | 4.0 | 11.0 | 0.00 | 0.06 | 0.06 | 91 | 1005.8 |
| 20260507020016 | 57 | 219 | 2.0 | 11.0 | 0.00 | 0.06 | 0.06 | 91 | 1005.9 |
| 20260507015506 | 57 | 246 | 3.0 | 10.0 | 0.00 | 0.06 | 0.06 | 91 | 1005.8 |
| 20260507015010 | 57 | 214 | 2.0 | 11.0 | 0.00 | 0.06 | 0.06 | 91 | 1005.9 |
| 20260507014511 | 57 | 249 | 4.0 | 10.0 | 0.00 | 0.06 | 0.06 | 91 | 1006.1 |
| 20260507014009 | 57 | 232 | 4.0 | 11.0 | 0.00 | 0.06 | 0.06 | 91 | 1006.0 |
| 20260507013507 | 57 | 232 | 5.0 | 12.0 | 0.00 | 0.06 | 0.06 | 91 | 1006.1 |
| 20260507013026 | 57 | 246 | 4.0 | 12.0 | 0.00 | 0.06 | 0.06 | 91 | 1006.1 |
| 20260507012506 | 57 | 252 | 5.0 | 13.0 | 0.00 | 0.06 | 0.06 | 90 | 1006.3 |
| 20260507012012 | 57 | 233 | 5.0 | 13.0 | 0.00 | 0.06 | 0.06 | 90 | 1006.2 |
| 20260507011528 | 57 | 228 | 5.0 | 12.0 | 0.00 | 0.06 | 0.06 | 90 | 1006.3 |
| 20260507011004 | 57 | 252 | 7.0 | 13.0 | 0.00 | 0.06 | 0.06 | 90 | 1006.4 |
| 20260507010511 | 57 | 258 | 6.0 | 13.0 | 0.00 | 0.06 | 0.06 | 90 | 1006.4 |
| 20260507010023 | 57 | 237 | 6.0 | 14.0 | 0.01 | 0.06 | 0.06 | 90 | 1006.4 |
| 20260507005504 | 57 | 250 | 7.0 | 14.0 | 0.01 | 0.06 | 0.06 | 90 | 1006.4 |
| 20260507005006 | 57 | 261 | 5.0 | 14.0 | 0.01 | 0.06 | 0.06 | 90 | 1006.4 |
| 20260507004520 | 57 | 233 | 3.0 | 11.0 | 0.01 | 0.06 | 0.06 | 90 | 1006.3 |
| 20260507004007 | 57 | 254 | 3.0 | 13.0 | 0.01 | 0.06 | 0.06 | 90 | 1006.3 |
| 20260507003510 | 57 | 260 | 5.0 | 13.0 | 0.01 | 0.06 | 0.06 | 90 | 1006.4 |
| 20260507003019 | 57 | 272 | 5.0 | 15.0 | 0.02 | 0.06 | 0.06 | 90 | 1006.3 |
| 20260507002503 | 57 | 227 | 7.0 | 15.0 | 0.02 | 0.06 | 0.06 | 90 | 1006.2 |
| 20260507002003 | 57 | 234 | 6.0 | 13.0 | 0.02 | 0.06 | 0.06 | 90 | 1006.2 |
| 20260507001507 | 57 | 228 | 4.0 | 13.0 | 0.02 | 0.06 | 0.06 | 90 | 1006.1 |
| 20260507001003 | 57 | 250 | 4.0 | 13.0 | 0.02 | 0.06 | 0.06 | 90 | 1006.1 |
| 20260507000506 | 57 | 236 | 6.0 | 13.0 | 0.02 | 0.06 | 0.06 | 90 | 1006.0 |
| 20260507000012 | 57 | 223 | 6.0 | 11.0 | 0.01 | 0.05 | 0.05 | 90 | 1006.1 |
| 20260506235509 | 57 | 242 | 6.0 | 14.0 | 0.01 | 0.05 | 0.05 | 90 | 1006.1 |
| 20260506235007 | 57 | 199 | 4.0 | 14.0 | 0.01 | 0.05 | 0.05 | 90 | 1006.0 |
| 20260506234512 | 57 | 259 | 6.0 | 14.0 | 0.01 | 0.05 | 0.05 | 89 | 1006.0 |
| 20260506234011 | 57 | 236 | 7.0 | 14.0 | 0.01 | 0.05 | 0.05 | 89 | 1005.9 |
| 20260506233509 | 58 | 243 | 7.0 | 14.0 | 0.01 | 0.05 | 0.05 | 89 | 1005.9 |
| 20260506233009 | 58 | 215 | 7.0 | 13.0 | 0.00 | 0.04 | 0.04 | 89 | 1006.0 |
| 20260506232506 | 58 | 245 | 6.0 | 13.0 | 0.00 | 0.04 | 0.04 | 89 | 1005.9 |
| 20260506232010 | 58 | 247 | 6.0 | 13.0 | 0.01 | 0.04 | 0.04 | 89 | 1005.9 |
| 20260506231507 | 58 | 241 | 6.0 | 13.0 | 0.01 | 0.04 | 0.04 | 89 | 1006.2 |
| 20260506231004 | 58 | 250 | 5.0 | 12.0 | 0.01 | 0.04 | 0.04 | 89 | 1006.4 |
| 20260506230504 | 58 | 240 | 8.0 | 12.0 | 0.01 | 0.04 | 0.04 | 89 | 1006.4 |
| 20260506230013 | 58 | 217 | 6.0 | 12.0 | 0.01 | 0.04 | 0.04 | 89 | 1006.2 |
| 20260506225504 | 58 | 238 | 6.0 | 12.0 | 0.01 | 0.04 | 0.04 | 89 | 1006.1 |
| 20260506225006 | 58 | 257 | 6.0 | 14.0 | 0.02 | 0.04 | 0.04 | 89 | 1006.2 |
| 20260506224515 | 58 | 246 | 7.0 | 14.0 | 0.02 | 0.04 | 0.04 | 89 | 1006.3 |
| 20260506224008 | 58 | 188 | 5.0 | 14.0 | 0.02 | 0.04 | 0.04 | 89 | 1006.5 |
| 20260506223507 | 58 | 220 | 8.0 | 14.0 | 0.02 | 0.04 | 0.04 | 89 | 1006.6 |
| 20260506223016 | 58 | 261 | 4.0 | 11.0 | 0.03 | 0.04 | 0.04 | 89 | 1006.6 |
| 20260506222510 | 59 | 199 | 5.0 | 11.0 | 0.03 | 0.04 | 0.04 | 88 | 1006.7 |
| 20260506222005 | 59 | 263 | 3.0 | 13.0 | 0.02 | 0.03 | 0.03 | 88 | 1006.7 |
| 20260506221516 | 59 | 213 | 4.0 | 13.0 | 0.02 | 0.03 | 0.03 | 88 | 1006.8 |
| 20260506221009 | 59 | 256 | 7.0 | 13.0 | 0.02 | 0.03 | 0.03 | 87 | 1006.9 |
| 20260506220504 | 59 | 256 | 4.0 | 13.0 | 0.02 | 0.03 | 0.03 | 87 | 1006.8 |
| 20260506220008 | 60 | 223 | 4.0 | 13.0 | 0.02 | 0.03 | 0.03 | 88 | 1006.9 |
| 20260506215507 | 60 | 186 | 4.0 | 11.0 | 0.02 | 0.03 | 0.03 | 87 | 1007.1 |
| 20260506215009 | 60 | 198 | 6.0 | 12.0 | 0.01 | 0.02 | 0.02 | 87 | 1007.1 |
| 20260506214510 | 60 | 209 | 4.0 | 13.0 | 0.02 | 0.02 | 0.02 | 87 | 1007.1 |
| 20260506214007 | 60 | 206 | 5.0 | 13.0 | 0.02 | 0.02 | 0.02 | 86 | 1007.1 |
| 20260506213510 | 60 | 229 | 5.0 | 13.0 | 0.02 | 0.02 | 0.02 | 86 | 1007.0 |
| 20260506213025 | 60 | 231 | 4.0 | 15.0 | 0.01 | 0.01 | 0.01 | 86 | 1007.0 |
| 20260506212507 | 60 | 231 | 4.0 | 16.0 | 0.01 | 0.01 | 0.01 | 86 | 1007.1 |
| 20260506212010 | 60 | 248 | 5.0 | 16.0 | 0.01 | 0.01 | 0.01 | 86 | 1007.1 |
| 20260506211537 | 60 | 199 | 5.0 | 13.0 | 0.01 | 0.01 | 0.01 | 85 | 1007.2 |
| 20260506211009 | 61 | 232 | 5.0 | 13.0 | 0.01 | 0.01 | 0.01 | 85 | 1007.2 |
| 20260506210507 | 61 | 217 | 5.0 | 13.0 | 0.01 | 0.01 | 0.01 | 85 | 1007.1 |
| 20260506210031 | 61 | 238 | 7.0 | 13.0 | 0.01 | 0.01 | 0.01 | 84 | 1007.2 |
| 20260506205511 | 61 | 222 | 3.0 | 16.0 | 0.01 | 0.01 | 0.01 | 84 | 1007.2 |
| 20260506205007 | 61 | 234 | 7.0 | 16.0 | 0.01 | 0.01 | 0.01 | 83 | 1007.3 |
| 20260506204516 | 61 | 244 | 3.0 | 14.0 | 0.00 | 0.00 | 0.00 | 82 | 1007.3 |
| 20260506204007 | 61 | 214 | 6.0 | 14.0 | 0.00 | 0.00 | 0.00 | 82 | 1007.2 |
| 20260506203506 | 61 | 237 | 8.0 | 14.0 | 0.00 | 0.00 | 0.00 | 81 | 1007.2 |
| 20260506203015 | 61 | 211 | 6.0 | 13.0 | 0.00 | 0.00 | 0.00 | 81 | 1007.2 |
| 20260506202510 | 61 | 158 | 6.0 | 13.0 | 0.00 | 0.00 | 0.00 | 80 | 1007.2 |
| 20260506202012 | 61 | 248 | 6.0 | 11.0 | 0.00 | 0.00 | 0.00 | 80 | 1007.1 |
| 20260506201511 | 62 | 249 | 4.0 | 14.0 | 0.00 | 0.00 | 0.00 | 80 | 1007.1 |
| 20260506201009 | 62 | 242 | 4.0 | 14.0 | 0.00 | 0.00 | 0.00 | 79 | 1007.2 |
| 20260506200508 | 62 | 203 | 4.0 | 13.0 | 0.00 | 0.00 | 0.00 | 79 | 1007.2 |
| 20260506200029 | 62 | 221 | 6.0 | 13.0 | 0.00 | 0.00 | 0.00 | 79 | 1007.2 |
| 20260506195511 | 62 | 250 | 4.0 | 14.0 | 0.00 | 0.00 | 0.00 | 78 | 1007.3 |
| 20260506195013 | 62 | 229 | 7.0 | 14.0 | 0.00 | 0.00 | 0.00 | 77 | 1007.3 |
| 20260506194510 | 62 | 257 | 7.0 | 15.0 | 0.00 | 0.00 | 0.00 | 77 | 1007.3 |
| 20260506194008 | 62 | 163 | 8.0 | 15.0 | 0.00 | 0.00 | 0.00 | 76 | 1007.5 |
| 20260506193507 | 63 | 209 | 4.0 | 13.0 | 0.00 | 0.00 | 0.00 | 76 | 1007.5 |
| 20260506193025 | 63 | 179 | 6.0 | 14.0 | 0.00 | 0.00 | 0.00 | 75 | 1007.6 |
| 20260506192510 | 63 | 207 | 9.0 | 14.0 | 0.00 | 0.00 | 0.00 | 74 | 1007.6 |
| 20260506192009 | 63 | 227 | 6.0 | 13.0 | 0.00 | 0.00 | 0.00 | 73 | 1007.5 |
| 20260506191522 | 64 | 238 | 6.0 | 13.0 | 0.00 | 0.00 | 0.00 | 72 | 1007.4 |
| 20260506191009 | 64 | 213 | 7.0 | 13.0 | 0.00 | 0.00 | 0.00 | 71 | 1007.4 |
| 20260506190506 | 64 | 257 | 5.0 | 11.0 | 0.00 | 0.00 | 0.00 | 70 | 1007.3 |
| 20260506190020 | 64 | 251 | 6.0 | 16.0 | 0.00 | 0.00 | 0.00 | 70 | 1007.4 |
| 20260506185510 | 65 | 193 | 7.0 | 16.0 | 0.00 | 0.00 | 0.00 | 70 | 1007.5 |
| 20260506185007 | 65 | 215 | 8.0 | 15.0 | 0.00 | 0.00 | 0.00 | 70 | 1007.4 |
| 20260506184513 | 65 | 190 | 7.0 | 15.0 | 0.00 | 0.00 | 0.00 | 69 | 1007.4 |
| 20260506184008 | 65 | 261 | 6.0 | 14.0 | 0.00 | 0.00 | 0.00 | 69 | 1007.5 |
| 20260506183507 | 65 | 255 | 5.0 | 17.0 | 0.00 | 0.00 | 0.00 | 69 | 1007.5 |
| 20260506183010 | 65 | 227 | 5.0 | 17.0 | 0.00 | 0.00 | 0.00 | 69 | 1007.5 |
| 20260506182505 | 65 | 268 | 9.0 | 19.0 | 0.00 | 0.00 | 0.00 | 68 | 1007.6 |
| 20260506182011 | 66 | 173 | 8.0 | 19.0 | 0.00 | 0.00 | 0.00 | 68 | 1007.6 |
| 20260506181534 | 66 | 231 | 7.0 | 17.0 | 0.00 | 0.00 | 0.00 | 67 | 1007.7 |
| 20260506181006 | 67 | 209 | 8.0 | 17.0 | 0.00 | 0.00 | 0.00 | 66 | 1007.7 |
| 20260506180507 | 67 | 239 | 7.0 | 16.0 | 0.00 | 0.00 | 0.00 | 65 | 1007.8 |
| 20260506180025 | 67 | 225 | 7.0 | 17.0 | 0.00 | 0.00 | 0.00 | 65 | 1007.9 |
| 20260506175509 | 67 | 236 | 8.0 | 20.0 | 0.00 | 0.00 | 0.00 | 65 | 1007.9 |
| 20260506175008 | 67 | 196 | 11.0 | 20.0 | 0.00 | 0.00 | 0.00 | 65 | 1008.1 |
| 20260506174528 | 67 | 190 | 8.0 | 18.0 | 0.00 | 0.00 | 0.00 | 65 | 1008.0 |
| 20260506174014 | 67 | 253 | 6.0 | 18.0 | 0.00 | 0.00 | 0.00 | 66 | 1008.0 |
| 20260506173508 | 67 | 259 | 10.0 | 15.0 | 0.00 | 0.00 | 0.00 | 65 | 1008.2 |
| 20260506173038 | 68 | 244 | 6.0 | 14.0 | 0.00 | 0.00 | 0.00 | 64 | 1008.2 |
| 20260506172510 | 68 | 237 | 6.0 | 15.0 | 0.00 | 0.00 | 0.00 | 64 | 1008.2 |
| 20260506172009 | 68 | 202 | 4.0 | 15.0 | 0.00 | 0.00 | 0.00 | 64 | 1008.1 |
| 20260506171522 | 67 | 248 | 7.0 | 15.0 | 0.00 | 0.00 | 0.00 | 66 | 1008.0 |
| 20260506171006 | 67 | 252 | 6.0 | 14.0 | 0.00 | 0.00 | 0.00 | 66 | 1008.1 |
| 20260506170508 | 67 | 190 | 7.0 | 17.0 | 0.00 | 0.00 | 0.00 | 66 | 1008.2 |
| 20260506170016 | 67 | 218 | 8.0 | 17.0 | 0.00 | 0.00 | 0.00 | 65 | 1008.3 |
| 20260506165508 | 67 | 269 | 6.0 | 14.0 | 0.00 | 0.00 | 0.00 | 66 | 1008.3 |
| 20260506165009 | 67 | 201 | 5.0 | 12.0 | 0.00 | 0.00 | 0.00 | 66 | 1008.3 |
| 20260506164528 | 67 | 258 | 6.0 | 12.0 | 0.00 | 0.00 | 0.00 | 66 | 1008.4 |
| 20260506164013 | 67 | 231 | 5.0 | 13.0 | 0.00 | 0.00 | 0.00 | 65 | 1008.4 |
| 20260506163511 | 67 | 215 | 6.0 | 14.0 | 0.00 | 0.00 | 0.00 | 64 | 1008.6 |
| 20260506163029 | 68 | 211 | 4.0 | 16.0 | 0.00 | 0.00 | 0.00 | 64 | 1008.7 |
| 20260506162509 | 67 | 258 | 7.0 | 16.0 | 0.00 | 0.00 | 0.00 | 65 | 1008.8 |
| 20260506162017 | 67 | 236 | 8.0 | 16.0 | 0.00 | 0.00 | 0.00 | 65 | 1008.8 |
| 20260506161514 | 67 | 256 | 5.0 | 16.0 | 0.00 | 0.00 | 0.00 | 65 | 1008.9 |
| 20260506161016 | 67 | 224 | 7.0 | 14.0 | 0.00 | 0.00 | 0.00 | 65 | 1008.9 |
| 20260506160507 | 67 | 236 | 7.0 | 14.0 | 0.00 | 0.00 | 0.00 | 65 | 1009.1 |
| 20260506160023 | 67 | 246 | 7.0 | 14.0 | 0.00 | 0.00 | 0.00 | 65 | 1009.2 |
| 20260506155510 | 67 | 208 | 6.0 | 12.0 | 0.00 | 0.00 | 0.00 | 65 | 1009.3 |
| 20260506155007 | 68 | 38 | 5.0 | 18.0 | 0.00 | 0.00 | 0.00 | 64 | 1009.5 |
| 20260506154525 | 68 | 169 | 7.0 | 18.0 | 0.00 | 0.00 | 0.00 | 64 | 1009.4 |
| 20260506154012 | 68 | 273 | 8.0 | 17.0 | 0.00 | 0.00 | 0.00 | 64 | 1009.5 |
| 20260506153515 | 68 | 212 | 8.0 | 16.0 | 0.00 | 0.00 | 0.00 | 64 | 1009.5 |
| 20260506153025 | 68 | 186 | 6.0 | 14.0 | 0.00 | 0.00 | 0.00 | 64 | 1009.6 |
| 20260506152508 | 68 | 250 | 6.0 | 14.0 | 0.00 | 0.00 | 0.00 | 64 | 1009.7 |
| 20260506152013 | 68 | 244 | 6.0 | 19.0 | 0.00 | 0.00 | 0.00 | 65 | 1009.7 |
| 20260506151516 | 68 | 233 | 8.0 | 19.0 | 0.00 | 0.00 | 0.00 | 64 | 1009.8 |
| 20260506151009 | 68 | 228 | 7.0 | 16.0 | 0.00 | 0.00 | 0.00 | 65 | 1009.8 |
| 20260506150510 | 67 | 212 | 7.0 | 16.0 | 0.00 | 0.00 | 0.00 | 66 | 1009.8 |
| 20260506150017 | 67 | 245 | 8.0 | 15.0 | 0.00 | 0.00 | 0.00 | 65 | 1009.8 |
| 20260506145507 | 67 | 228 | 7.0 | 15.0 | 0.00 | 0.00 | 0.00 | 66 | 1009.7 |
| 20260506145008 | 67 | 213 | 5.0 | 15.0 | 0.00 | 0.00 | 0.00 | 65 | 1009.7 |
| 20260506144521 | 68 | 250 | 8.0 | 15.0 | 0.00 | 0.00 | 0.00 | 65 | 1009.6 |
| 20260506144008 | 67 | 246 | 6.0 | 15.0 | 0.00 | 0.00 | 0.00 | 66 | 1009.6 |
| 20260506143509 | 67 | 247 | 8.0 | 14.0 | 0.00 | 0.00 | 0.00 | 66 | 1009.6 |
| 20260506143027 | 67 | 219 | 7.0 | 13.0 | 0.00 | 0.00 | 0.00 | 67 | 1009.5 |
| 20260506142514 | 67 | 263 | 7.0 | 13.0 | 0.00 | 0.00 | 0.00 | 67 | 1009.6 |
| 20260506142008 | 67 | 177 | 7.0 | 14.0 | 0.00 | 0.00 | 0.00 | 67 | 1009.5 |
| 20260506141524 | 66 | 282 | 4.0 | 14.0 | 0.00 | 0.00 | 0.00 | 68 | 1009.5 |
| 20260506141010 | 66 | 225 | 4.0 | 12.0 | 0.00 | 0.00 | 0.00 | 69 | 1009.6 |
| 20260506140508 | 65 | 230 | 7.0 | 12.0 | 0.00 | 0.00 | 0.00 | 69 | 1009.6 |
| 20260506140025 | 65 | 225 | 5.0 | 11.0 | 0.00 | 0.00 | 0.00 | 70 | 1009.6 |
| 20260506135511 | 65 | 182 | 6.0 | 13.0 | 0.00 | 0.00 | 0.00 | 71 | 1009.6 |
| 20260506135007 | 64 | 213 | 6.0 | 13.0 | 0.00 | 0.00 | 0.00 | 71 | 1009.7 |
| 20260506134520 | 64 | 202 | 6.0 | 14.0 | 0.00 | 0.00 | 0.00 | 72 | 1010.0 |
| 20260506134011 | 63 | 236 | 8.0 | 14.0 | 0.00 | 0.00 | 0.00 | 73 | 1010.1 |
| 20260506133513 | 63 | 256 | 8.0 | 12.0 | 0.00 | 0.00 | 0.00 | 73 | 1010.1 |
| 20260506133023 | 63 | 226 | 4.0 | 12.0 | 0.00 | 0.00 | 0.00 | 73 | 1010.2 |
| 20260506132511 | 63 | 187 | 4.0 | 13.0 | 0.00 | 0.00 | 0.00 | 73 | 1010.2 |
| 20260506132012 | 63 | 278 | 6.0 | 13.0 | 0.00 | 0.00 | 0.00 | 74 | 1010.1 |
| 20260506131526 | 63 | 242 | 5.0 | 13.0 | 0.00 | 0.00 | 0.00 | 74 | 1010.0 |
| 20260506131009 | 63 | 258 | 7.0 | 13.0 | 0.00 | 0.00 | 0.00 | 74 | 1010.1 |
| 20260506130516 | 63 | 259 | 5.0 | 11.0 | 0.00 | 0.00 | 0.00 | 75 | 1010.2 |
| 20260506130026 | 63 | 227 | 5.0 | 11.0 | 0.00 | 0.00 | 0.00 | 75 | 1010.2 |
| 20260506125510 | 62 | 225 | 4.0 | 11.0 | 0.00 | 0.00 | 0.00 | 75 | 1010.2 |
| 20260506125009 | 62 | 232 | 4.0 | 11.0 | 0.00 | 0.00 | 0.00 | 76 | 1010.2 |
| 20260506124526 | 62 | 200 | 4.0 | 12.0 | 0.00 | 0.00 | 0.00 | 77 | 1010.4 |
| 20260506124010 | 61 | 181 | 4.0 | 15.0 | 0.00 | 0.00 | 0.00 | 78 | 1010.3 |
| 20260506123508 | 60 | 207 | 7.0 | 15.0 | 0.00 | 0.00 | 0.00 | 79 | 1010.2 |
| 20260506123024 | 60 | 212 | 8.0 | 14.0 | 0.00 | 0.00 | 0.00 | 78 | 1010.1 |
| 20260506122510 | 61 | 236 | 6.0 | 14.0 | 0.00 | 0.00 | 0.00 | 79 | 1010.1 |
| 20260506122006 | 60 | 223 | 7.0 | 14.0 | 0.00 | 0.00 | 0.00 | 80 | 1010.0 |
| 20260506121525 | 60 | 198 | 7.0 | 15.0 | 0.00 | 0.00 | 0.00 | 79 | 1010.0 |
| 20260506121011 | 60 | 254 | 6.0 | 15.0 | 0.00 | 0.00 | 0.00 | 80 | 1010.2 |
| 20260506120510 | 60 | 204 | 5.0 | 14.0 | 0.00 | 0.00 | 0.00 | 80 | 1010.4 |
| 20260506120020 | 60 | 230 | 8.0 | 14.0 | 0.00 | 0.00 | 0.00 | 81 | 1010.3 |
| 20260506115508 | 59 | 133 | 5.0 | 13.0 | 0.00 | 0.00 | 0.00 | 81 | 1010.4 |
| 20260506115012 | 60 | 195 | 5.0 | 12.0 | 0.00 | 0.00 | 0.00 | 81 | 1010.6 |
| 20260506114528 | 59 | 229 | 6.0 | 13.0 | 0.00 | 0.00 | 0.00 | 81 | 1010.7 |
| 20260506114011 | 59 | 202 | 6.0 | 13.0 | 0.00 | 0.00 | 0.00 | 82 | 1010.6 |
| 20260506113510 | 59 | 223 | 4.0 | 12.0 | 0.00 | 0.00 | 0.00 | 82 | 1010.7 |
| 20260506113022 | 59 | 232 | 6.0 | 12.0 | 0.00 | 0.00 | 0.00 | 83 | 1010.4 |
| 20260506112509 | 58 | 137 | 4.0 | 13.0 | 0.00 | 0.00 | 0.00 | 83 | 1010.5 |
| 20260506112009 | 58 | 240 | 6.0 | 13.0 | 0.00 | 0.00 | 0.00 | 83 | 1010.5 |
| 20260506111524 | 58 | 239 | 7.0 | 14.0 | 0.00 | 0.00 | 0.00 | 83 | 1010.3 |
| 20260506111007 | 58 | 225 | 8.0 | 14.0 | 0.00 | 0.00 | 0.00 | 82 | 1010.4 |
| 20260506110511 | 58 | 238 | 8.0 | 14.0 | 0.00 | 0.00 | 0.00 | 83 | 1010.4 |
| 20260506110028 | 58 | 221 | 9.0 | 15.0 | 0.00 | 0.00 | 0.00 | 83 | 1010.3 |
| 20260506105511 | 58 | 229 | 8.0 | 15.0 | 0.00 | 0.00 | 0.00 | 82 | 1010.4 |
| 20260506105011 | 58 | 269 | 6.0 | 12.0 | 0.00 | 0.00 | 0.00 | 82 | 1010.5 |
| 20260506104553 | 58 | 226 | 7.0 | 12.0 | 0.00 | 0.00 | 0.00 | 82 | 1010.5 |
| 20260506104009 | 58 | 244 | 4.0 | 11.0 | 0.00 | 0.00 | 0.00 | 82 | 1010.6 |
| 20260506103510 | 58 | 183 | 5.0 | 13.0 | 0.00 | 0.00 | 0.00 | 82 | 1010.6 |
| 20260506103024 | 59 | 220 | 7.0 | 13.0 | 0.00 | 0.00 | 0.00 | 81 | 1010.5 |
| 20260506102512 | 59 | 229 | 5.0 | 13.0 | 0.00 | 0.00 | 0.00 | 81 | 1010.4 |
| 20260506102010 | 59 | 229 | 4.0 | 13.0 | 0.00 | 0.00 | 0.00 | 81 | 1010.4 |
| 20260506101524 | 59 | 202 | 4.0 | 14.0 | 0.00 | 0.00 | 0.00 | 81 | 1010.4 |
| 20260506101008 | 59 | 197 | 5.0 | 14.0 | 0.00 | 0.00 | 0.00 | 81 | 1010.4 |
| 20260506100508 | 59 | 235 | 6.0 | 13.0 | 0.00 | 0.00 | 0.00 | 81 | 1010.2 |
| 20260506100036 | 59 | 172 | 6.0 | 12.0 | 0.00 | 0.00 | 0.00 | 81 | 1010.1 |
| 20260506095505 | 59 | 256 | 6.0 | 13.0 | 0.00 | 0.00 | 0.00 | 81 | 1010.2 |
| 20260506095009 | 59 | 234 | 5.0 | 13.0 | 0.00 | 0.00 | 0.00 | 81 | 1010.2 |
| 20260506094512 | 59 | 246 | 4.0 | 12.0 | 0.00 | 0.00 | 0.00 | 81 | 1010.2 |
| 20260506094006 | 59 | 207 | 5.0 | 13.0 | 0.00 | 0.00 | 0.00 | 81 | 1010.2 |
| 20260506093502 | 59 | 227 | 4.0 | 15.0 | 0.00 | 0.00 | 0.00 | 81 | 1010.1 |
| 20260506093014 | 59 | 215 | 4.0 | 17.0 | 0.00 | 0.00 | 0.00 | 81 | 1010.1 |
| 20260506092509 | 59 | 238 | 7.0 | 17.0 | 0.00 | 0.00 | 0.00 | 81 | 1010.1 |
| 20260506092010 | 59 | 257 | 4.0 | 14.0 | 0.00 | 0.00 | 0.00 | 80 | 1010.1 |
| 20260506091510 | 59 | 243 | 7.0 | 14.0 | 0.00 | 0.00 | 0.00 | 80 | 1010.0 |
| 20260506091010 | 59 | 225 | 6.0 | 15.0 | 0.00 | 0.00 | 0.00 | 80 | 1010.1 |
| 20260506090513 | 59 | 218 | 8.0 | 15.0 | 0.00 | 0.00 | 0.00 | 80 | 1010.2 |
| 20260506090025 | 59 | 211 | 5.0 | 15.0 | 0.00 | 0.00 | 0.00 | 79 | 1010.2 |
| 20260506085506 | 59 | 197 | 5.0 | 15.0 | 0.00 | 0.00 | 0.00 | 79 | 1010.3 |
| 20260506085006 | 59 | 267 | 7.0 | 15.0 | 0.00 | 0.00 | 0.00 | 79 | 1010.1 |
| 20260506084510 | 59 | 215 | 4.0 | 14.0 | 0.00 | 0.00 | 0.00 | 79 | 1010.2 |
| 20260506084009 | 59 | 265 | 5.0 | 14.0 | 0.00 | 0.00 | 0.00 | 78 | 1010.2 |
| 20260506083506 | 60 | 242 | 7.0 | 15.0 | 0.00 | 0.00 | 0.00 | 78 | 1010.2 |
| 20260506083035 | 60 | 209 | 5.0 | 16.0 | 0.00 | 0.00 | 0.00 | 78 | 1010.2 |
| 20260506082505 | 60 | 232 | 5.0 | 16.0 | 0.00 | 0.00 | 0.00 | 78 | 1010.1 |
| 20260506082006 | 60 | 208 | 6.0 | 16.0 | 0.00 | 0.00 | 0.00 | 78 | 1010.1 |
| 20260506081520 | 60 | 259 | 6.0 | 16.0 | 0.00 | 0.00 | 0.00 | 78 | 1010.0 |
| 20260506081010 | 60 | 221 | 6.0 | 16.0 | 0.00 | 0.00 | 0.00 | 77 | 1010.1 |
| 20260506080505 | 60 | 247 | 8.0 | 16.0 | 0.00 | 0.00 | 0.00 | 77 | 1010.0 |
| 20260506073512 | 60 | 243 | 8.0 | 14.0 | 0.00 | 0.00 | 0.00 | 77 | 1010.0 |
| 20260506073008 | 60 | 202 | 6.0 | 19.0 | 0.00 | 0.00 | 0.00 | 77 | 1010.0 |
| 20260506072508 | 60 | 223 | 9.0 | 19.0 | 0.00 | 0.00 | 0.00 | 77 | 1010.0 |
| 20260506072010 | 60 | 240 | 5.0 | 17.0 | 0.00 | 0.00 | 0.00 | 77 | 1010.0 |
| 20260506071522 | 60 | 207 | 7.0 | 20.0 | 0.00 | 0.00 | 0.00 | 76 | 1010.0 |
| 20260506071006 | 60 | 219 | 6.0 | 20.0 | 0.00 | 0.00 | 0.00 | 77 | 1009.9 |
| 20260506070507 | 60 | 256 | 6.0 | 14.0 | 0.00 | 0.00 | 0.00 | 76 | 1009.9 |
| 20260506062510 | 60 | 223 | 7.0 | 18.0 | 0.00 | 0.00 | 0.00 | 74 | 1009.8 |
| 20260506062007 | 60 | 252 | 8.0 | 18.0 | 0.00 | 0.00 | 0.00 | 74 | 1009.7 |
| 20260506061519 | 60 | 261 | 7.0 | 12.0 | 0.00 | 0.00 | 0.00 | 74 | 1009.6 |
| 20260506061011 | 60 | 232 | 4.0 | 14.0 | 0.00 | 0.00 | 0.00 | 74 | 1009.7 |